Powrót do katalogu

STARLINK-3761

AktywnyŁącznośćVLEO
NORAD 52262·PAYLOAD·🇺🇸 United States

Wystrzelony Apr 21, 2022 z Cape Canaveral Space Force Station

Loading…

Następne Przeloty (najbliższe 24 godziny)

TLE

ŚwieżeSource: CelesTrak SupGP

Epoka: Sep 14, 2026, 21:27 UTC

1 52262C 22041B   26257.89423611 -.00035016  00000+0 -10347-2 0  2572
2 52262  53.1587 333.5797 0001179  85.1118 220.8554 15.34403131    19

Śledź STARLINK-3761 w czasie rzeczywistym z AllMySat

Download on the App Store